Regional Weather Roundup
Issued by NWS

Home | Current Version | Previous Version | Graphics & Text | Print | Product List | Glossary On
Versions: 1 2 3 4 5 6 7 8 9 10 11 12 13 14 15 16 17 18 19 20 21 22 23 24 25 26 27 28 29 30 31 32 33 34 35 36 37 38 39 40 41 42 43 44 45 46 47 48 49 50
000
ASUS43 KLSX 260907
RWRMO

WEATHER SUMMARY FOR MISSOURI
NATIONAL WEATHER SERVICE SPRINGFIELD MO
400 AM CDT SUN OCT 26 2014

NOTE: "FAIR" INDICATES FEW OR NO CLOUDS BELOW 12,000 FEET WITH NO
       SIGNIFICANT WEATHER AND/OR OBSTRUCTIONS TO VISIBILITY.
       CURRENT SKY AND/OR WEATHER CONDITIONS ARE NOT AVAILABLE FOR
       CHILLICOTHE AND FARMINGTON.

MOZ001>031-035>038-043-044-053-054-261000-
...NORTHERN AND WESTERN MISSOURI...

CITY           SKY/WX    TMP DP  RH WIND       PRES   REMARKS
KANSAS CTY INT CLEAR     60  49  66 E12       29.95F
KANSAS C DTWN  CLEAR     59  50  72 E7        29.95F
LEE`S SUMMIT   CLEAR     57  50  77 E8        29.96F
ST JOSEPH      CLEAR     58  46  64 E8        29.95F
CHILLICOTHE      N/A     58  44  60 CALM      30.01F
KIRKSVILLE     CLEAR     52  38  58 E7        30.01F

$$
MOZ066>068-077>081-088>096-101>105-261000-
...SOUTHWEST MISSOURI...

CITY           SKY/WX    TMP DP  RH WIND       PRES   REMARKS
SPRINGFIELD    CLEAR     58  57  97 S6        29.99F FOG
JOPLIN         CLEAR     64  61  90 S8        29.98F

$$
MOZ032>034-039>042-045>050-055>058-069>072-261000-
...CENTRAL MISSOURI...

CITY           SKY/WX    TMP DP  RH WIND       PRES   REMARKS
COLUMBIA       CLEAR     57  46  66 E7        30.01F
JEFFERSON CITY   N/A     51  50  96 CALM      30.00F VSB 1/2
ROLLA          CLEAR     56  51  84 E6        30.00F
SEDALIA        CLEAR     59  51  75 E5        30.00F
WHITEMAN AFB   CLEAR     58  52  79 E7        29.97F
OSAGE BEACH    CLEAR     54  52  94 CALM      29.99F

$$
MOZ051-052-059>065-261000-
...EAST CENTRAL MISSOURI...

CITY           SKY/WX    TMP DP  RH WIND       PRES   REMARKS
ST LOUIS INTL  CLEAR     56  46  69 CALM      30.03S
SPIRIT OF STL  CLEAR     48  48 100 CALM      30.02S FOG
ST CHARLES     CLEAR     56  41  57 NE5       30.02S

$$
MOZ072>076-082>087-097>100-106>115-261000-
...SOUTH CENTRAL AND SOUTHEAST MISSOURI...

CITY           SKY/WX    TMP DP  RH WIND       PRES   REMARKS
CAPE GIRARDEAU CLEAR     54  54 100 CALM      30.00S FOG
FARMINGTON     CLEAR     52  52 100 CALM      30.03S
POPLAR BLUFF   FOG       55  53  93 CALM      29.98S VSB 1/4
WEST PLAINS    CLEAR     59  56  89 CALM      30.02F

$$



USA.gov is the U.S. government's official web portal to all federal, state and local government web resources and services.